{"data":{"norad_id":53009,"epoch":"2026-09-20T00:37:10.211232Z","epoch_age_seconds":109771,"freshness":"FRESH","line1":"1 53009U 22076Z   26263.02581263  .00000510  00000+0  25535-4 0  9999","line2":"2 53009  53.1603 283.7523 0001179  74.8453 285.2680 15.35402159232425","mean_motion":15.35402159,"eccentricity":0.0001179,"inclination_deg":53.1603,"raan_deg":283.7523,"arg_perigee_deg":74.8453,"mean_anomaly_deg":285.268,"bstar":2.5535e-5,"rev_number":23242,"period_min":93.786503526728,"perigee_km":458.92004863458,"apogee_km":460.53241678485,"semimajor_km":6837.8632327097,"source":"CELESTRAK","updated_at":"2026-09-20T09:00:40.143441Z"}}